22.2.2020 Tornio Ralli

Tulokset  Keskeyttäneet (52)  AT-pisteet (7)  Tilastot Lähtöön oikeutettujen lista CSV


 << EK4 EK6 >> Yleiskilpailun tulos
Tornio Ralli
22.2.2020
EK 5, LUOKKATULOKSET
Lisäluokat
Tornion Ralliharrastajat
Kehäkaantie
 
Luokka 2 , Historic gr2,4, a yli 1350 60-90 vm. 2wd , Lähti:7
EK5, 5.26km, nopein: 71.8km/h
SijNroNimiTulosEro
1113Jani Ahola4:23,7
2117Esa Huovinen4:27,13,4
3114Jarmo Holtinkoski4:36,713,0
4116samuli mustonen4:36,713,0
5119jouni kumpulainen4:38,614,9
6115Jari Lukkarila4:56,833,1
Tulos EK 5 jälkeen
SijNroNimiTulosEro
1117Esa Huovinen22:38,8
2113Jani Ahola22:51,4 12,6
3114Jarmo Holtinkoski23:28,4*49,6
4119jouni kumpulainen24:02,4 1:23,6
5116samuli mustonen24:07,2 1:28,4
6115Jari Lukkarila25:18,5 2:39,7


Keskeyttäneet: 118, Jesse Aho, 3A, ?
*AT-pisteet: 114, Jarmo Holtinkoski, 4L, Vilppilähtö, 10,0
 
Luokka 10 , Naiset cc vapaa 2wd , Lähti:3
EK5, 5.26km, nopein: 66km/h
SijNroNimiTulosEro
136Sara Vainikainen4:46,8
238Katja Kehus4:54,98,1
337Marika Laukkanen4:59,612,8
Tulos EK 5 jälkeen
SijNroNimiTulosEro
136Sara Vainikainen23:52,5
238Katja Kehus25:30,9 1:38,4
337Marika Laukkanen26:01,4 2:08,9

 
Luokka 14 , F, A, HR alle 1650 2wd Nuotti , Lähti:4
EK5, 5.26km, nopein: 75.7km/h
SijNroNimiTulosEro
170Benjamin Korhola €4:10,0
272Jonne Ollikainen4:16,46,4
371Mielityinen Eemil4:30,320,3
473Patrik Goman8:49,24:39,2
Tulos EK 5 jälkeen
SijNroNimiTulosEro
170Benjamin Korhola €21:09,6
272Jonne Ollikainen22:14,1 1:04,5
371Mielityinen Eemil23:45,7*2:36,1
473Patrik Goman26:39,3 5:29,7


*AT-pisteet: 71, Mielityinen Eemil, 3L, Vilppilähtö, 10,0
 
Luokka 18 , VW aircooled 2wd , Lähti:0
 
Luokka 19 , Lada orginal 2wd , Lähti:2
EK5, 5.26km, nopein: 66.1km/h
SijNroNimiTulosEro
1107Ari Koskinen4:46,3
2106Ari Anttonen4:53,26,9
Tulos EK 5 jälkeen
SijNroNimiTulosEro
1106Ari Anttonen24:57,0
2107Ari Koskinen25:15,6 18,6

 
Luokka 21 , Aloittelijoiden luokka (max. 5 kilpailua) , Lähti:15
EK5, 5.26km, nopein: 71km/h
SijNroNimiTulosEro
1192Jari Sysimetsä4:26,8
2197Ari Kivelä4:27,10,3
3194Kimmo Pakonen4:35,58,7
4198Eerikki Salmela4:35,68,8
5190Matti Löytynoja4:40,313,5
6193Petri Kinnunen4:40,713,9
7191Kimmo Liljamaa4:42,515,7
8199Aleksi Kehus4:42,715,9
9195Henry Kehus4:42,916,1
10200Juha Niiranen4:43,817,0
11189Tuomas Junes4:45,518,7
12196Niko Mettovaara5:09,943,1
13201Teijo Heikkinen5:10,643,8
14203Eero Lammi5:11,044,2
15188Mikko Kaarlela21:10,516:43,7
Tulos EK 5 jälkeen
SijNroNimiTulosEro
1192Jari Sysimetsä23:12,3
2197Ari Kivelä23:55,0 42,7
3190Matti Löytynoja24:01,1 48,8
4195Henry Kehus24:04,2 51,9
5198Eerikki Salmela24:27,8 1:15,5
6194Kimmo Pakonen24:32,5 1:20,2
7193Petri Kinnunen24:37,3 1:25,0
8200Juha Niiranen24:39,1 1:26,8
9199Aleksi Kehus24:41,9 1:29,6
10189Tuomas Junes24:53,9 1:41,6
11203Eero Lammi26:15,7 3:03,4
12191Kimmo Liljamaa26:20,9 3:08,6
13196Niko Mettovaara26:39,3 3:27,0
14201Teijo Heikkinen28:22,3 5:10,0
15188Mikko Kaarlela39:51,3 16:39,0